owner,sensor,date,latitude,longitude,vertical_datum,direction_of_sea_water_velocity,sea_water_speed,upward_sea_water_velocity,qcFlag 
TABS,ioos:station:wmo:42043:1,2003-10-01T00:00:00Z,28.9818,-94.9186,2.0,243.0981881,31.22946365,-99999.0,'11111222,11111222,99999999' 
TABS,ioos:station:wmo:42043:1,2003-10-01T00:30:00Z,28.9818,-94.9186,2.0,252.1526987,32.66172378,-99999.0,'11111222,11111222,99999999' 
TABS,ioos:station:wmo:42043:1,2003-10-01T01:00:00Z,28.9818,-94.9186,2.0,247.6077241,34.41488777,-99999.0,'11111222,11111222,99999999' 
TABS,ioos:station:wmo:42043:1,2003-10-01T01:30:00Z,28.9818,-94.9186,2.0,241.743172,32.42369658,-99999.0,'11111222,11111222,99999999' 
TABS,ioos:station:wmo:42043:1,2003-10-01T02:00:00Z,28.9818,-94.9186,2.0,242.734207,35.12230773,-99999.0,'11111222,11111222,99999999' 
TABS,ioos:station:wmo:42043:1,2003-10-01T02:30:00Z,28.9818,-94.9186,2.0,252.6476176,33.79813604,-99999.0,'11111222,11111222,99999999' 
TABS,ioos:station:wmo:42043:1,2003-10-01T03:00:00Z,28.9818,-94.9186,2.0,247.3540144,32.51692636,-99999.0,'11111222,11111222,99999999' 
TABS,ioos:station:wmo:42043:1,2003-10-01T03:30:00Z,28.9818,-94.9186,2.0,243.0258897,40.12502461,-99999.0,'11111222,11111222,99999999' 
TABS,ioos:station:wmo:42043:1,2003-10-01T04:00:00Z,28.9818,-94.9186,2.0,234.4805152,39.53698648,-99999.0,'11111222,11111222,99999999' 
TABS,ioos:station:wmo:42043:1,2003-10-01T04:30:00Z,28.9818,-94.9186,2.0,234.2134897,38.59690402,-99999.0,'11111222,11111222,99999999' 
TABS,ioos:station:wmo:42043:1,2003-10-01T05:00:00Z,28.9818,-94.9186,2.0,229.8499368,34.95725962,-99999.0,'11111222,11111222,99999999' 
TABS,ioos:station:wmo:42043:1,2003-10-01T05:30:00Z,28.9818,-94.9186,2.0,239.2120901,36.80720038,-99999.0,'11111222,11111222,99999999' 
TABS,ioos:station:wmo:42043:1,2003-10-01T06:00:00Z,28.9818,-94.9186,2.0,251.2371632,37.61906963,-99999.0,'11111222,11111222,99999999' 
TABS,ioos:station:wmo:42043:1,2003-10-01T06:30:00Z,28.9818,-94.9186,2.0,246.2513929,50.23358737,-99999.0,'11111222,11111222,99999999' 
TABS,ioos:station:wmo:42043:1,2003-10-01T07:00:00Z,28.9818,-94.9186,2.0,243.5565051,56.7470616,-99999.0,'11111222,11111222,99999999' 
TABS,ioos:station:wmo:42043:1,2003-10-01T07:30:00Z,28.9818,-94.9186,2.0,246.0293632,67.27176079,-99999.0,'11111222,11111222,99999999' 
TABS,ioos:station:wmo:42043:1,2003-10-01T08:00:00Z,28.9818,-94.9186,2.0,243.06737,60.00835275,-99999.0,'11111222,11111222,99999999' 
TABS,ioos:station:wmo:42043:1,2003-10-01T08:30:00Z,28.9818,-94.9186,2.0,236.7142634,49.87156504,-99999.0,'11111222,11111222,99999999' 
TABS,ioos:station:wmo:42043:1,2003-10-01T09:00:00Z,28.9818,-94.9186,2.0,237.0441508,49.54157244,-99999.0,'11111222,11111222,99999999' 
TABS,ioos:station:wmo:42043:1,2003-10-01T09:30:00Z,28.9818,-94.9186,2.0,236.6018432,46.76183487,-99999.0,'11111222,11111222,99999999' 
TABS,ioos:station:wmo:42043:1,2003-10-01T10:00:00Z,28.9818,-94.9186,2.0,237.2873815,52.49615034,-99999.0,'11111222,11111222,99999999' 
TABS,ioos:station:wmo:42043:1,2003-10-01T10:30:00Z,28.9818,-94.9186,2.0,235.8668768,55.99588288,-99999.0,'11111222,11111222,99999999' 
TABS,ioos:station:wmo:42043:1,2003-10-01T11:00:00Z,28.9818,-94.9186,2.0,232.1702498,51.83326827,-99999.0,'11111222,11111222,99999999' 
TABS,ioos:station:wmo:42043:1,2003-10-01T11:30:00Z,28.9818,-94.9186,2.0,230.0967579,48.23156228,-99999.0,'11111222,11111222,99999999' 
TABS,ioos:station:wmo:42043:1,2003-10-01T12:00:00Z,28.9818,-94.9186,2.0,229.6809429,42.88767305,-99999.0,'11111222,11111222,99999999' 
TABS,ioos:station:wmo:42043:1,2003-10-01T12:30:00Z,28.9818,-94.9186,2.0,231.7311525,34.9884238,-99999.0,'11111222,11111222,99999999' 
TABS,ioos:station:wmo:42043:1,2003-10-01T13:00:00Z,28.9818,-94.9186,2.0,233.6802836,45.58610424,-99999.0,'11111222,11111222,99999999' 
TABS,ioos:station:wmo:42043:1,2003-10-01T13:30:00Z,28.9818,-94.9186,2.0,224.2923666,46.39681131,-99999.0,'11111222,11111222,99999999' 
TABS,ioos:station:wmo:42043:1,2003-10-01T14:00:00Z,28.9818,-94.9186,2.0,229.9844182,40.93366463,-99999.0,'11111222,11111222,99999999' 
TABS,ioos:station:wmo:42043:1,2003-10-01T14:30:00Z,28.9818,-94.9186,2.0,234.75997,58.5617025,-99999.0,'11111222,11111222,99999999' 
TABS,ioos:station:wmo:42043:1,2003-10-01T15:00:00Z,28.9818,-94.9186,2.0,235.6927754,67.75778184,-99999.0,'11111222,11111222,99999999' 
TABS,ioos:station:wmo:42043:1,2003-10-01T15:30:00Z,28.9818,-94.9186,2.0,233.2835542,85.69030867,-99999.0,'11111222,11111222,99999999' 
TABS,ioos:station:wmo:42043:1,2003-10-01T16:00:00Z,28.9818,-94.9186,2.0,232.5845726,101.7306055,-99999.0,'11111222,11111222,99999999' 
TABS,ioos:station:wmo:42043:1,2003-10-01T16:30:00Z,28.9818,-94.9186,2.0,234.0593959,94.30241248,-99999.0,'11111222,11111222,99999999' 
TABS,ioos:station:wmo:42043:1,2003-10-01T17:00:00Z,28.9818,-94.9186,2.0,233.883163,96.8903762,-99999.0,'11111222,11111222,99999999' 
TABS,ioos:station:wmo:42043:1,2003-10-01T17:30:00Z,28.9818,-94.9186,2.0,230.536072,93.96025756,-99999.0,'11111222,11111222,99999999' 
TABS,ioos:station:wmo:42043:1,2003-10-01T18:00:00Z,28.9818,-94.9186,2.0,230.6193987,101.5975024,-99999.0,'11111222,11111222,99999999' 
TABS,ioos:station:wmo:42043:1,2003-10-01T18:30:00Z,28.9818,-94.9186,2.0,233.652119,100.2561664,-99999.0,'11111222,11111222,99999999' 
TABS,ioos:station:wmo:42043:1,2003-10-01T19:00:00Z,28.9818,-94.9186,2.0,233.0242551,101.0021713,-99999.0,'11111222,11111222,99999999' 
TABS,ioos:station:wmo:42043:1,2003-10-01T19:30:00Z,28.9818,-94.9186,2.0,231.6314041,96.06684808,-99999.0,'11111222,11111222,99999999' 
TABS,ioos:station:wmo:42043:1,2003-10-01T20:00:00Z,28.9818,-94.9186,2.0,233.0294056,82.20812612,-99999.0,'11111222,11111222,99999999' 
TABS,ioos:station:wmo:42043:1,2003-10-01T20:30:00Z,28.9818,-94.9186,2.0,233.9307864,75.10733985,-99999.0,'11111222,11111222,99999999' 
TABS,ioos:station:wmo:42043:1,2003-10-01T21:00:00Z,28.9818,-94.9186,2.0,240.9541096,61.37943955,-99999.0,'11111222,11111222,99999999' 
TABS,ioos:station:wmo:42043:1,2003-10-01T21:30:00Z,28.9818,-94.9186,2.0,227.4577924,69.40983,-99999.0,'11111222,11111222,99999999' 
TABS,ioos:station:wmo:42043:1,2003-10-01T22:00:00Z,28.9818,-94.9186,2.0,225.9964541,58.12590214,-99999.0,'11111222,11111222,99999999' 
TABS,ioos:station:wmo:42043:1,2003-10-01T22:30:00Z,28.9818,-94.9186,2.0,224.6931162,48.89713386,-99999.0,'11111222,11111222,99999999' 
TABS,ioos:station:wmo:42043:1,2003-10-01T23:00:00Z,28.9818,-94.9186,2.0,227.5454089,38.84435609,-99999.0,'11111222,11111222,99999999' 
TABS,ioos:station:wmo:42043:1,2003-10-01T23:30:00Z,28.9818,-94.9186,2.0,226.7879578,38.74710957,-99999.0,'11111222,11111222,99999999' 
TABS,ioos:station:wmo:42043:1,2003-10-02T00:00:00Z,28.9818,-94.9186,2.0,230.0865823,36.84395744,-99999.0,'11111222,11111222,99999999' 
TABS,ioos:station:wmo:42043:1,2003-10-02T00:30:00Z,28.9818,-94.9186,2.0,242.9329322,31.66840855,-99999.0,'11111222,11111222,99999999' 
TABS,ioos:station:wmo:42043:1,2003-10-02T01:00:00Z,28.9818,-94.9186,2.0,235.4567761,39.50457695,-99999.0,'11111222,11111222,99999999' 
TABS,ioos:station:wmo:42043:1,2003-10-02T01:30:00Z,28.9818,-94.9186,2.0,233.9092704,42.77995909,-99999.0,'11111222,11111222,99999999' 
TABS,ioos:station:wmo:42043:1,2003-10-02T02:00:00Z,28.9818,-94.9186,2.0,240.9540755,49.28887298,-99999.0,'11111222,11111222,99999999' 
TABS,ioos:station:wmo:42043:1,2003-10-02T02:30:00Z,28.9818,-94.9186,2.0,239.3363563,54.94204219,-99999.0,'11111222,11111222,99999999' 
TABS,ioos:station:wmo:42043:1,2003-10-02T03:00:00Z,28.9818,-94.9186,2.0,234.9108591,52.37930603,-99999.0,'11111222,11111222,99999999' 
TABS,ioos:station:wmo:42043:1,2003-10-02T03:30:00Z,28.9818,-94.9186,2.0,223.6457309,66.73415692,-99999.0,'11111222,11111222,99999999' 
TABS,ioos:station:wmo:42043:1,2003-10-02T04:00:00Z,28.9818,-94.9186,2.0,213.1304821,107.400622,-99999.0,'11111222,11111222,99999999' 
TABS,ioos:station:wmo:42043:1,2003-10-02T04:30:00Z,28.9818,-94.9186,2.0,231.4955673,62.0652439,-99999.0,'11111222,11111222,99999999' 
TABS,ioos:station:wmo:42043:1,2003-10-02T05:00:00Z,28.9818,-94.9186,2.0,240.4776335,64.41296531,-99999.0,'11111222,11111222,99999999' 
TABS,ioos:station:wmo:42043:1,2003-10-02T05:30:00Z,28.9818,-94.9186,2.0,242.0825559,64.63141419,-99999.0,'11111222,11111222,99999999' 
TABS,ioos:station:wmo:42043:1,2003-10-02T06:00:00Z,28.9818,-94.9186,2.0,242.9986626,59.95518993,-99999.0,'11111222,11111222,99999999' 
TABS,ioos:station:wmo:42043:1,2003-10-02T06:30:00Z,28.9818,-94.9186,2.0,242.5010652,49.68308062,-99999.0,'11111222,11111222,99999999' 
TABS,ioos:station:wmo:42043:1,2003-10-02T07:00:00Z,28.9818,-94.9186,2.0,247.703434,51.60851577,-99999.0,'11111222,11111222,99999999' 
TABS,ioos:station:wmo:42043:1,2003-10-02T07:30:00Z,28.9818,-94.9186,2.0,250.7505575,56.08549367,-99999.0,'11111222,11111222,99999999' 
TABS,ioos:station:wmo:42043:1,2003-10-02T08:00:00Z,28.9818,-94.9186,2.0,250.8826942,54.19895386,-99999.0,'11111222,11111222,99999999' 
TABS,ioos:station:wmo:42043:1,2003-10-02T08:30:00Z,28.9818,-94.9186,2.0,248.0996263,51.79793432,-99999.0,'11111222,11111222,99999999' 
TABS,ioos:station:wmo:42043:1,2003-10-02T09:00:00Z,28.9818,-94.9186,2.0,244.9738699,54.60659667,-99999.0,'11111222,11111222,99999999' 
TABS,ioos:station:wmo:42043:1,2003-10-02T09:30:00Z,28.9818,-94.9186,2.0,242.5728349,49.95493669,-99999.0,'11111222,11111222,99999999' 
TABS,ioos:station:wmo:42043:1,2003-10-02T10:00:00Z,28.9818,-94.9186,2.0,233.7968115,36.24845652,-99999.0,'11111222,11111222,99999999' 
TABS,ioos:station:wmo:42043:1,2003-10-02T10:30:00Z,28.9818,-94.9186,2.0,250.0644795,40.82634933,-99999.0,'11111222,11111222,99999999' 
TABS,ioos:station:wmo:42043:1,2003-10-02T11:00:00Z,28.9818,-94.9186,2.0,244.3552967,49.53977392,-99999.0,'11111222,11111222,99999999' 
TABS,ioos:station:wmo:42043:1,2003-10-02T11:30:00Z,28.9818,-94.9186,2.0,239.8330443,58.30658711,-99999.0,'11111222,11111222,99999999' 
TABS,ioos:station:wmo:42043:1,2003-10-02T12:00:00Z,28.9818,-94.9186,2.0,240.2043032,60.55502126,-99999.0,'11111222,11111222,99999999' 
TABS,ioos:station:wmo:42043:1,2003-10-02T12:30:00Z,28.9818,-94.9186,2.0,239.6465831,50.36342026,-99999.0,'11111222,11111222,99999999' 
TABS,ioos:station:wmo:42043:1,2003-10-02T13:00:00Z,28.9818,-94.9186,2.0,231.7939518,57.73769133,-99999.0,'11111222,11111222,99999999' 
TABS,ioos:station:wmo:42043:1,2003-10-02T13:30:00Z,28.9818,-94.9186,2.0,235.4210971,56.87747621,-99999.0,'11111222,11111222,99999999' 
TABS,ioos:station:wmo:42043:1,2003-10-02T14:00:00Z,28.9818,-94.9186,2.0,234.2570058,51.33993572,-99999.0,'11111222,11111222,99999999' 
TABS,ioos:station:wmo:42043:1,2003-10-02T14:30:00Z,28.9818,-94.9186,2.0,228.9490498,56.5685257,-99999.0,'11111222,11111222,99999999' 
TABS,ioos:station:wmo:42043:1,2003-10-02T15:00:00Z,28.9818,-94.9186,2.0,241.3094733,65.96912763,-99999.0,'11111222,11111222,99999999' 
TABS,ioos:station:wmo:42043:1,2003-10-02T15:30:00Z,28.9818,-94.9186,2.0,240.8773538,69.06041558,-99999.0,'11111222,11111222,99999999' 
TABS,ioos:station:wmo:42043:1,2003-10-02T16:00:00Z,28.9818,-94.9186,2.0,239.2992482,67.9072971,-99999.0,'11111222,11111222,99999999' 
TABS,ioos:station:wmo:42043:1,2003-10-02T16:30:00Z,28.9818,-94.9186,2.0,238.4121286,77.03315455,-99999.0,'11111222,11111222,99999999' 
TABS,ioos:station:wmo:42043:1,2003-10-02T17:00:00Z,28.9818,-94.9186,2.0,243.6403432,93.40116166,-99999.0,'11111222,11111222,99999999' 
TABS,ioos:station:wmo:42043:1,2003-10-02T17:30:00Z,28.9818,-94.9186,2.0,240.4823937,83.35944158,-99999.0,'11111222,11111222,99999999' 
TABS,ioos:station:wmo:42043:1,2003-10-02T18:00:00Z,28.9818,-94.9186,2.0,241.7150152,81.81879613,-99999.0,'11111222,11111222,99999999' 
TABS,ioos:station:wmo:42043:1,2003-10-02T18:30:00Z,28.9818,-94.9186,2.0,245.0179835,85.45489863,-99999.0,'11111222,11111222,99999999' 
TABS,ioos:station:wmo:42043:1,2003-10-02T19:00:00Z,28.9818,-94.9186,2.0,247.0801218,80.60340998,-99999.0,'11111222,11111222,99999999' 
TABS,ioos:station:wmo:42043:1,2003-10-02T19:30:00Z,28.9818,-94.9186,2.0,251.0819606,73.19351406,-99999.0,'11111222,11111222,99999999' 
TABS,ioos:station:wmo:42043:1,2003-10-02T20:00:00Z,28.9818,-94.9186,2.0,245.238364,83.6838252,-99999.0,'11111222,11111222,99999999' 
TABS,ioos:station:wmo:42043:1,2003-10-02T20:30:00Z,28.9818,-94.9186,2.0,248.3652195,86.00887512,-99999.0,'11111222,11111222,99999999' 
TABS,ioos:station:wmo:42043:1,2003-10-02T21:00:00Z,28.9818,-94.9186,2.0,245.326113,84.27412889,-99999.0,'11111222,11111222,99999999' 
TABS,ioos:station:wmo:42043:1,2003-10-02T21:30:00Z,28.9818,-94.9186,2.0,247.9936037,79.5561041,-99999.0,'11111222,11111222,99999999' 
TABS,ioos:station:wmo:42043:1,2003-10-02T22:00:00Z,28.9818,-94.9186,2.0,240.1706681,76.89789724,-99999.0,'11111222,11111222,99999999' 
TABS,ioos:station:wmo:42043:1,2003-10-02T22:30:00Z,28.9818,-94.9186,2.0,240.4552789,68.40433466,-99999.0,'11111222,11111222,99999999' 
TABS,ioos:station:wmo:42043:1,2003-10-02T23:00:00Z,28.9818,-94.9186,2.0,238.6340518,62.84377217,-99999.0,'11111222,11111222,99999999' 
TABS,ioos:station:wmo:42043:1,2003-10-02T23:30:00Z,28.9818,-94.9186,2.0,240.1162461,58.48626933,-99999.0,'11111222,11111222,99999999' 
TABS,ioos:station:wmo:42043:1,2003-10-03T00:00:00Z,28.9818,-94.9186,2.0,243.4170644,58.48212462,-99999.0,'11111222,11111222,99999999' 
TABS,ioos:station:wmo:42043:1,2003-10-03T00:30:00Z,28.9818,-94.9186,2.0,243.7431236,63.94799919,-99999.0,'11111222,11111222,99999999' 
TABS,ioos:station:wmo:42043:1,2003-10-03T01:00:00Z,28.9818,-94.9186,2.0,239.0340444,53.09767697,-99999.0,'11111222,11111222,99999999' 
TABS,ioos:station:wmo:42043:1,2003-10-03T01:30:00Z,28.9818,-94.9186,2.0,236.1593798,48.66401545,-99999.0,'11111222,11111222,99999999' 
TABS,ioos:station:wmo:42043:1,2003-10-03T02:00:00Z,28.9818,-94.9186,2.0,239.7461569,56.03117793,-99999.0,'11111222,11111222,99999999' 
TABS,ioos:station:wmo:42043:1,2003-10-03T02:30:00Z,28.9818,-94.9186,2.0,236.6786604,60.7104225,-99999.0,'11111222,11111222,99999999' 
TABS,ioos:station:wmo:42043:1,2003-10-03T03:00:00Z,28.9818,-94.9186,2.0,231.5227353,70.45971331,-99999.0,'11111222,11111222,99999999' 
TABS,ioos:station:wmo:42043:1,2003-10-03T04:00:00Z,28.9818,-94.9186,2.0,226.7718521,71.33876926,-99999.0,'11111222,11111222,99999999' 
TABS,ioos:station:wmo:42043:1,2003-10-03T04:30:00Z,28.9818,-94.9186,2.0,228.9848062,71.52708927,-99999.0,'11111222,11111222,99999999' 
TABS,ioos:station:wmo:42043:1,2003-10-03T05:00:00Z,28.9818,-94.9186,2.0,227.9593277,70.52898199,-99999.0,'11111222,11111222,99999999' 
TABS,ioos:station:wmo:42043:1,2003-10-03T05:30:00Z,28.9818,-94.9186,2.0,229.0293428,56.75126959,-99999.0,'11111222,11111222,99999999' 
TABS,ioos:station:wmo:42043:1,2003-10-03T06:00:00Z,28.9818,-94.9186,2.0,214.7883191,56.99760083,-99999.0,'11111222,11111222,99999999' 
TABS,ioos:station:wmo:42043:1,2003-10-03T06:30:00Z,28.9818,-94.9186,2.0,223.1226827,53.32324915,-99999.0,'11111222,11111222,99999999' 
TABS,ioos:station:wmo:42043:1,2003-10-03T07:00:00Z,28.9818,-94.9186,2.0,238.451717,42.22000118,-99999.0,'11111222,11111222,99999999' 
TABS,ioos:station:wmo:42043:1,2003-10-03T07:30:00Z,28.9818,-94.9186,2.0,236.4280624,38.89843442,-99999.0,'11111222,11111222,99999999' 
TABS,ioos:station:wmo:42043:1,2003-10-03T08:00:00Z,28.9818,-94.9186,2.0,241.0112599,31.09573765,-99999.0,'11111222,11111222,99999999' 
TABS,ioos:station:wmo:42043:1,2003-10-03T08:30:00Z,28.9818,-94.9186,2.0,245.5434339,27.10161065,-99999.0,'11111222,11111222,99999999' 
TABS,ioos:station:wmo:42043:1,2003-10-03T09:00:00Z,28.9818,-94.9186,2.0,242.0439652,21.9288691,-99999.0,'11111222,11111222,99999999' 
TABS,ioos:station:wmo:42043:1,2003-10-03T09:30:00Z,28.9818,-94.9186,2.0,237.1220201,25.62417804,-99999.0,'11111222,11111222,99999999' 
TABS,ioos:station:wmo:42043:1,2003-10-03T10:00:00Z,28.9818,-94.9186,2.0,243.8250882,23.62237075,-99999.0,'11111222,11111222,99999999' 
TABS,ioos:station:wmo:42043:1,2003-10-03T10:30:00Z,28.9818,-94.9186,2.0,231.5958761,20.62138938,-99999.0,'11111222,11111222,99999999' 
TABS,ioos:station:wmo:42043:1,2003-10-03T11:00:00Z,28.9818,-94.9186,2.0,245.307852,26.40418527,-99999.0,'11111222,11111222,99999999' 
TABS,ioos:station:wmo:42043:1,2003-10-03T11:30:00Z,28.9818,-94.9186,2.0,243.4124297,23.12541675,-99999.0,'11111222,11111222,99999999' 
TABS,ioos:station:wmo:42043:1,2003-10-03T12:00:00Z,28.9818,-94.9186,2.0,249.493741,24.0648395,-99999.0,'11111222,11111222,99999999' 
TABS,ioos:station:wmo:42043:1,2003-10-03T12:30:00Z,28.9818,-94.9186,2.0,244.2904194,26.04862568,-99999.0,'11111222,11111222,99999999' 
TABS,ioos:station:wmo:42043:1,2003-10-03T13:00:00Z,28.9818,-94.9186,2.0,252.2504099,24.04451913,-99999.0,'11111222,11111222,99999999' 
TABS,ioos:station:wmo:42043:1,2003-10-03T13:30:00Z,28.9818,-94.9186,2.0,236.989759,67.05411099,-99999.0,'11111222,11111222,99999999' 
TABS,ioos:station:wmo:42043:1,2003-10-03T14:00:00Z,28.9818,-94.9186,2.0,240.096646,57.52876932,-99999.0,'11111222,11111222,99999999' 
TABS,ioos:station:wmo:42043:1,2003-10-03T14:30:00Z,28.9818,-94.9186,2.0,241.0629827,52.84777573,-99999.0,'11111222,11111222,99999999' 
TABS,ioos:station:wmo:42043:1,2003-10-03T15:00:00Z,28.9818,-94.9186,2.0,241.2069183,54.18957557,-99999.0,'11111222,11111222,99999999' 
TABS,ioos:station:wmo:42043:1,2003-10-03T15:30:00Z,28.9818,-94.9186,2.0,233.8767774,59.98109786,-99999.0,'11111222,11111222,99999999' 
TABS,ioos:station:wmo:42043:1,2003-10-03T16:00:00Z,28.9818,-94.9186,2.0,233.017194,51.9141002,-99999.0,'11111222,11111222,99999999' 
TABS,ioos:station:wmo:42043:1,2003-10-03T16:30:00Z,28.9818,-94.9186,2.0,228.7114247,56.36149927,-99999.0,'11111222,11111222,99999999' 
TABS,ioos:station:wmo:42043:1,2003-10-03T17:00:00Z,28.9818,-94.9186,2.0,236.9960491,39.12303925,-99999.0,'11111222,11111222,99999999' 
TABS,ioos:station:wmo:42043:1,2003-10-03T17:30:00Z,28.9818,-94.9186,2.0,242.7524508,37.93981813,-99999.0,'11111222,11111222,99999999' 
TABS,ioos:station:wmo:42043:1,2003-10-03T18:00:00Z,28.9818,-94.9186,2.0,239.2340829,41.15133169,-99999.0,'11111222,11111222,99999999' 
TABS,ioos:station:wmo:42043:1,2003-10-03T18:30:00Z,28.9818,-94.9186,2.0,245.2059114,36.6040353,-99999.0,'11111222,11111222,99999999' 
TABS,ioos:station:wmo:42043:1,2003-10-03T19:00:00Z,28.9818,-94.9186,2.0,245.6924833,38.82144768,-99999.0,'11111222,11111222,99999999' 
TABS,ioos:station:wmo:42043:1,2003-10-03T19:30:00Z,28.9818,-94.9186,2.0,245.5749989,39.27486728,-99999.0,'11111222,11111222,99999999' 
TABS,ioos:station:wmo:42043:1,2003-10-03T20:00:00Z,28.9818,-94.9186,2.0,251.2152331,40.96174435,-99999.0,'11111222,11111222,99999999' 
TABS,ioos:station:wmo:42043:1,2003-10-03T20:30:00Z,28.9818,-94.9186,2.0,252.6073719,42.92237761,-99999.0,'11111222,11111222,99999999' 
TABS,ioos:station:wmo:42043:1,2003-10-03T21:00:00Z,28.9818,-94.9186,2.0,252.0643921,43.87194662,-99999.0,'11111222,11111222,99999999' 
TABS,ioos:station:wmo:42043:1,2003-10-03T21:30:00Z,28.9818,-94.9186,2.0,254.5604636,42.59717362,-99999.0,'11111222,11111222,99999999' 
TABS,ioos:station:wmo:42043:1,2003-10-03T22:00:00Z,28.9818,-94.9186,2.0,257.6143946,39.81662592,-99999.0,'11111222,11111222,99999999' 
TABS,ioos:station:wmo:42043:1,2003-10-03T22:30:00Z,28.9818,-94.9186,2.0,255.9558915,37.17101021,-99999.0,'11111222,11111222,99999999' 
TABS,ioos:station:wmo:42043:1,2003-10-03T23:00:00Z,28.9818,-94.9186,2.0,259.6673411,35.51591897,-99999.0,'11111222,11111222,99999999' 
TABS,ioos:station:wmo:42043:1,2003-10-03T23:30:00Z,28.9818,-94.9186,2.0,259.9357951,32.10395926,-99999.0,'11111222,11111222,99999999' 
TABS,ioos:station:wmo:42043:1,2003-10-04T00:00:00Z,28.9818,-94.9186,2.0,265.0479755,30.12241856,-99999.0,'11111222,11111222,99999999' 
TABS,ioos:station:wmo:42043:1,2003-10-04T00:30:00Z,28.9818,-94.9186,2.0,257.3694619,26.9829372,-99999.0,'11111222,11111222,99999999' 
TABS,ioos:station:wmo:42043:1,2003-10-04T01:00:00Z,28.9818,-94.9186,2.0,254.3373056,25.29937746,-99999.0,'11111222,11111222,99999999' 
TABS,ioos:station:wmo:42043:1,2003-10-04T01:30:00Z,28.9818,-94.9186,2.0,251.1579347,19.60029081,-99999.0,'11111222,11111222,99999999' 
TABS,ioos:station:wmo:42043:1,2003-10-04T02:00:00Z,28.9818,-94.9186,2.0,253.2914093,18.36536142,-99999.0,'11111222,11111222,99999999' 
TABS,ioos:station:wmo:42043:1,2003-10-04T02:30:00Z,28.9818,-94.9186,2.0,257.3954613,18.14733314,-99999.0,'11111222,11111222,99999999' 
TABS,ioos:station:wmo:42043:1,2003-10-04T03:00:00Z,28.9818,-94.9186,2.0,260.2171949,18.24528432,-99999.0,'11111222,11111222,99999999' 
TABS,ioos:station:wmo:42043:1,2003-10-04T03:30:00Z,28.9818,-94.9186,2.0,259.0413355,17.25462257,-99999.0,'11111222,11111222,99999999' 
TABS,ioos:station:wmo:42043:1,2003-10-04T04:00:00Z,28.9818,-94.9186,2.0,270.3470328,16.53030248,-99999.0,'11111222,11111222,99999999' 
TABS,ioos:station:wmo:42043:1,2003-10-04T04:30:00Z,28.9818,-94.9186,2.0,283.260818,16.47938106,-99999.0,'11111222,11111222,99999999' 
TABS,ioos:station:wmo:42043:1,2003-10-04T05:00:00Z,28.9818,-94.9186,2.0,251.1499241,15.29001308,-99999.0,'11111222,11111222,99999999' 
TABS,ioos:station:wmo:42043:1,2003-10-04T05:30:00Z,28.9818,-94.9186,2.0,254.7607524,12.36476445,-99999.0,'11111222,11111222,99999999' 
TABS,ioos:station:wmo:42043:1,2003-10-04T06:00:00Z,28.9818,-94.9186,2.0,252.4270074,13.44752765,-99999.0,'11111222,11111222,99999999' 
TABS,ioos:station:wmo:42043:1,2003-10-04T06:30:00Z,28.9818,-94.9186,2.0,247.8725197,15.02670955,-99999.0,'11111222,11111222,99999999' 
TABS,ioos:station:wmo:42043:1,2003-10-04T07:00:00Z,28.9818,-94.9186,2.0,246.9788134,16.9281068,-99999.0,'11111222,11111222,99999999' 
TABS,ioos:station:wmo:42043:1,2003-10-04T07:30:00Z,28.9818,-94.9186,2.0,237.1830651,18.19350708,-99999.0,'11111222,11111222,99999999' 
TABS,ioos:station:wmo:42043:1,2003-10-04T08:00:00Z,28.9818,-94.9186,2.0,245.2380133,17.76317821,-99999.0,'11111222,11111222,99999999' 
TABS,ioos:station:wmo:42043:1,2003-10-04T08:30:00Z,28.9818,-94.9186,2.0,246.0026912,20.26123639,-99999.0,'11111222,11111222,99999999' 
TABS,ioos:station:wmo:42043:1,2003-10-04T09:00:00Z,28.9818,-94.9186,2.0,253.7758858,16.96560344,-99999.0,'11111222,11111222,99999999' 
TABS,ioos:station:wmo:42043:1,2003-10-04T09:30:00Z,28.9818,-94.9186,2.0,242.6133765,15.91349427,-99999.0,'11111222,11111222,99999999' 
TABS,ioos:station:wmo:42043:1,2003-10-04T10:00:00Z,28.9818,-94.9186,2.0,241.2788938,16.16927024,-99999.0,'11111222,11111222,99999999' 
TABS,ioos:station:wmo:42043:1,2003-10-04T10:30:00Z,28.9818,-94.9186,2.0,239.9918558,14.59656124,-99999.0,'11111222,11111222,99999999' 
TABS,ioos:station:wmo:42043:1,2003-10-04T11:00:00Z,28.9818,-94.9186,2.0,233.1218724,14.51400014,-99999.0,'11111222,11111222,99999999' 
TABS,ioos:station:wmo:42043:1,2003-10-04T11:30:00Z,28.9818,-94.9186,2.0,236.0686697,14.51108542,-99999.0,'11111222,11111222,99999999' 
TABS,ioos:station:wmo:42043:1,2003-10-04T12:00:00Z,28.9818,-94.9186,2.0,240.4598006,15.59746774,-99999.0,'11111222,11111222,99999999' 
TABS,ioos:station:wmo:42043:1,2003-10-04T12:30:00Z,28.9818,-94.9186,2.0,242.8363974,15.42076522,-99999.0,'11111222,11111222,99999999' 
TABS,ioos:station:wmo:42043:1,2003-10-04T13:00:00Z,28.9818,-94.9186,2.0,241.5222031,15.81333614,-99999.0,'11111222,11111222,99999999' 
TABS,ioos:station:wmo:42043:1,2003-10-04T13:30:00Z,28.9818,-94.9186,2.0,244.0349715,14.93775418,-99999.0,'11111222,11111222,99999999' 
TABS,ioos:station:wmo:42043:1,2003-10-04T14:00:00Z,28.9818,-94.9186,2.0,238.2867172,12.46043739,-99999.0,'11111222,11111222,99999999' 
TABS,ioos:station:wmo:42043:1,2003-10-04T14:30:00Z,28.9818,-94.9186,2.0,243.330825,14.81621072,-99999.0,'11111222,11111222,99999999' 
TABS,ioos:station:wmo:42043:1,2003-10-04T15:00:00Z,28.9818,-94.9186,2.0,231.7822899,16.58458622,-99999.0,'11111222,11111222,99999999' 
TABS,ioos:station:wmo:42043:1,2003-10-04T15:30:00Z,28.9818,-94.9186,2.0,236.9850704,18.11499379,-99999.0,'11111222,11111222,99999999' 
TABS,ioos:station:wmo:42043:1,2003-10-04T16:00:00Z,28.9818,-94.9186,2.0,233.49159,18.05235996,-99999.0,'11111222,11111222,99999999' 
TABS,ioos:station:wmo:42043:1,2003-10-04T16:30:00Z,28.9818,-94.9186,2.0,239.6825271,24.46583128,-99999.0,'11111222,11111222,99999999' 